Flag for Germany Weather past 2 weeks in Senftenberg, Brandenburg, Germany

Now
34 °F

Scattered clouds.


Feels Like: 31 °F
Forecast: 29 / 37 °F
Wind: 3 mph from Southwest

Location: Cottbus

Current Time: Feb 1, 2015 at 11:58:50 AM

Latest Report: Feb 1, 2015 at 11:00 AM


Visibility: 7 mi

Pressure: 29.23 "Hg

Humidity: 84%

Dew point: 29 °F

Location of SenftenbergLocation

Historic Weather in Senftenberg — Graph

°F

Senftenberg temperature yesterday

Maximum temperature yesterday: 36 °F (at 2:00 PM)
Minimum temperature yesterday: 31 °F (at 8:00 AM)
Average temperature yesterday: 34 °F

Past Weeks' High & Low Weather Summary

 TemperatureHumidityPressure
High42 °F (Jan 17, 1:00 PM)100% (Jan 17, 9:00 PM)30.33 "Hg (Jan 17, 9:00 PM)
Low25 °F (Jan 19, 3:00 AM)56% (Jan 29, 2:00 PM)28.73 "Hg (Jan 30, 7:00 AM)
Average34 °F90%29.80 "Hg
* Reported Jan 17 10:00 AM — Feb 1 10:00 AM, Senftenberg, Weather by CustomWeather, © 2014

Note: Actual official high and low records may vary slightly from our data, if they occured in-between our weather recording intervals... More about our weather records

Advertising

Senftenberg weather history for previous 24 hours

 ConditionsComfort  
Time TempWeatherWind HumidityBarometerVisibility
10:00 AM
Feb 1
33 °FSunny.3 mph83%29.21 "Hg7 mi
9:00 AM29 °FFog.2 mph93%29.21 "Hg4 mi
8:00 AM28 °FFog.2 mph95%29.18 "Hg4 mi
7:00 AM29 °FClear.3 mph92%29.15 "Hg6 mi
6:00 AM29 °FClear.3 mph91%29.15 "Hg7 mi
5:00 AM30 °FClear.2 mph90%29.15 "Hg8 mi
4:00 AM30 °FPassing clouds.3 mph89%29.12 "Hg8 mi
3:00 AM31 °FOvercast.3 mph87%29.12 "Hg10 mi
2:00 AM31 °FPassing clouds.3 mph86%29.12 "Hg11 mi
1:00 AM32 °FClear.5 mph86%29.12 "Hg12 mi
12:00 AM32 °FClear.5 mph89%29.09 "Hg9 mi
11:00 PM
Jan 31
33 °FPassing clouds.5 mph91%29.09 "Hg7 mi
10:00 PM34 °FOvercast.5 mph90%29.09 "Hg7 mi
9:00 PM35 °FOvercast.5 mph94%29.06 "Hg5 mi
8:00 PM34 °FLight snow. Low clouds.3 mph96%29.03 "Hg4 mi
7:00 PM33 °FLight snow. Low clouds.3 mph98%29.03 "Hg3 mi
6:00 PM34 °FLight snow. Low clouds.3 mph91%29.00 "Hg7 mi
5:00 PM35 °FOvercast.3 mph83%29.00 "Hg13 mi
4:00 PM36 °FOvercast.3 mph81%28.97 "Hg16 mi
3:00 PM36 °FOvercast.5 mph77%28.97 "Hg19 mi
2:00 PM36 °FOvercast.3 mph77%28.94 "Hg19 mi
1:00 PM36 °FOvercast.3 mph79%28.94 "Hg17 mi
12:00 PM36 °FOvercast.6 mph75%28.94 "Hg15 mi
11:00 AM33 °FOvercast.5 mph77%28.91 "Hg14 mi
Weather by CustomWeather, © 2014

See weather overviewHow to use our weather pages